| time (UTC) | temp C | wind direction | speed KPH | gust KPH | rain 1hr cm | rain 24hr cm | rain mn cm | humidity % | barometer mb |
| 20260506134205 | 11 | 9 | 0.0 | 24.1 | 0.00 | 0.74 | 0.56 | 89 | 1008.0 |
| 20260506133727 | 11 | 19 | 1.6 | 24.1 | 0.00 | 0.74 | 0.56 | 88 | 1007.9 |
| 20260506133207 | 11 | 9 | 0.0 | 24.1 | 0.00 | 0.74 | 0.56 | 88 | 1007.9 |
| 20260506132706 | 11 | 319 | 0.0 | 24.1 | 0.00 | 0.74 | 0.56 | 89 | 1008.0 |
| 20260506132221 | 11 | 276 | 0.0 | 24.1 | 0.00 | 0.74 | 0.56 | 88 | 1007.9 |
| 20260506131708 | 11 | 18 | 4.8 | 24.1 | 0.00 | 0.74 | 0.56 | 89 | 1007.9 |
| 20260506130707 | 11 | 59 | 0.0 | 24.1 | 0.00 | 0.74 | 0.56 | 89 | 1007.7 |
| 20260506125709 | 11 | 10 | 8.0 | 24.1 | 0.00 | 0.74 | 0.56 | 89 | 1007.6 |
| 20260506125207 | 11 | 45 | 0.0 | 24.1 | 0.00 | 0.74 | 0.56 | 90 | 1007.5 |
| 20260506124706 | 11 | 45 | 0.0 | 24.1 | 0.00 | 0.74 | 0.56 | 90 | 1007.5 |
| 20260506124207 | 11 | 15 | 6.4 | 24.1 | 0.00 | 0.74 | 0.56 | 89 | 1007.5 |
| 20260506123707 | 11 | 37 | 4.8 | 24.1 | 0.00 | 0.74 | 0.56 | 89 | 1007.4 |
| 20260506122710 | 11 | 5 | 1.6 | 24.1 | 0.00 | 0.74 | 0.56 | 90 | 1007.4 |
| 20260506122222 | 11 | 5 | 0.0 | 24.1 | 0.00 | 0.74 | 0.56 | 89 | 1007.4 |
| 20260506122206 | 11 | 0 | 1.6 | 24.1 | 0.00 | 0.74 | 0.56 | 89 | 1007.5 |
| 20260506121708 | 11 | 59 | 1.6 | 24.1 | 0.00 | 0.74 | 0.56 | 90 | 1007.5 |
| 20260506121206 | 11 | 0 | 1.6 | 24.1 | 0.00 | 0.74 | 0.56 | 91 | 1007.5 |
| 20260506120722 | 11 | 290 | 0.0 | 24.1 | 0.00 | 0.74 | 0.56 | 91 | 1007.4 |
| 20260506115707 | 11 | 290 | 3.2 | 24.1 | 0.03 | 0.74 | 0.56 | 90 | 1007.3 |
| 20260506115658 | 11 | 286 | 1.6 | 24.1 | 0.03 | 0.74 | 0.56 | 90 | 1007.4 |
| 20260506114206 | 12 | 5 | 3.2 | 24.1 | 0.03 | 0.74 | 0.56 | 90 | 1007.2 |
| 20260506114157 | 12 | 5 | 3.2 | 24.1 | 0.03 | 0.74 | 0.56 | 90 | 1007.2 |
| 20260506112706 | 12 | 0 | 0.0 | 24.1 | 0.05 | 0.74 | 0.56 | 89 | 1007.2 |
| 20260506112657 | 12 | 0 | 0.0 | 24.1 | 0.05 | 0.74 | 0.56 | 89 | 1007.2 |
| 20260506111157 | 12 | 9 | 3.2 | 24.1 | 0.05 | 0.74 | 0.56 | 92 | 1007.1 |
| 20260506110707 | 12 | 35 | 1.6 | 24.1 | 0.05 | 0.74 | 0.56 | 92 | 1007.0 |
| 20260506110207 | 12 | 123 | 0.0 | 24.1 | 0.05 | 0.74 | 0.56 | 92 | 1007.1 |
| 20260506105707 | 12 | 122 | 0.0 | 24.1 | 0.05 | 0.71 | 0.53 | 93 | 1007.0 |
| 20260506105657 | 12 | 123 | 1.6 | 24.1 | 0.05 | 0.71 | 0.53 | 93 | 1007.0 |
| 20260506104207 | 11 | 213 | 0.0 | 24.1 | 0.08 | 0.71 | 0.53 | 93 | 1006.9 |
| 20260506104158 | 11 | 213 | 0.0 | 24.1 | 0.08 | 0.71 | 0.53 | 93 | 1006.9 |
| 20260506103706 | 11 | 213 | 0.0 | 24.1 | 0.10 | 0.71 | 0.53 | 93 | 1006.9 |
| 20260506102706 | 11 | 212 | 0.0 | 24.1 | 0.08 | 0.71 | 0.51 | 93 | 1006.8 |
| 20260506102656 | 11 | 212 | 0.0 | 24.1 | 0.08 | 0.71 | 0.51 | 93 | 1006.8 |
| 20260506102207 | 11 | 213 | 0.0 | 24.1 | 0.08 | 0.71 | 0.51 | 93 | 1006.9 |
| 20260506101707 | 11 | 213 | 0.0 | 24.1 | 0.08 | 0.71 | 0.51 | 93 | 1006.8 |
| 20260506101207 | 11 | 213 | 0.0 | 24.1 | 0.08 | 0.71 | 0.51 | 93 | 1006.8 |
| 20260506101157 | 11 | 213 | 0.0 | 24.1 | 0.08 | 0.71 | 0.51 | 93 | 1006.8 |
| 20260506095658 | 11 | 211 | 0.0 | 24.1 | 0.05 | 0.69 | 0.51 | 93 | 1006.7 |
| 20260506094708 | 12 | 211 | 0.0 | 24.1 | 0.05 | 0.69 | 0.51 | 93 | 1006.6 |
| 20260506094206 | 12 | 211 | 0.0 | 24.1 | 0.03 | 0.64 | 0.46 | 92 | 1006.6 |
| 20260506094156 | 12 | 211 | 0.0 | 24.1 | 0.03 | 0.64 | 0.46 | 92 | 1006.6 |
| 20260506092656 | 12 | 205 | 0.0 | 24.1 | 0.00 | 0.61 | 0.43 | 92 | 1006.4 |
| 20260506092207 | 12 | 194 | 0.0 | 24.1 | 0.00 | 0.61 | 0.43 | 92 | 1006.3 |
| 20260506091707 | 12 | 232 | 3.2 | 24.1 | 0.00 | 0.61 | 0.43 | 92 | 1006.3 |
| 20260506091157 | 12 | 232 | 4.8 | 24.1 | 0.00 | 0.61 | 0.43 | 92 | 1006.3 |
| 20260506085706 | 12 | 229 | 1.6 | 24.1 | 0.00 | 0.61 | 0.43 | 93 | 1006.2 |
| 20260506085656 | 12 | 227 | 0.0 | 24.1 | 0.00 | 0.61 | 0.43 | 93 | 1006.2 |
| 20260506084707 | 12 | 242 | 3.2 | 24.1 | 0.00 | 0.61 | 0.43 | 93 | 1006.2 |
| 20260506084206 | 11 | 241 | 3.2 | 24.1 | 0.00 | 0.61 | 0.43 | 93 | 1006.2 |
| 20260506084157 | 11 | 241 | 3.2 | 24.1 | 0.00 | 0.61 | 0.43 | 93 | 1006.2 |
| 20260506083205 | 11 | 237 | 8.0 | 24.1 | 0.00 | 0.61 | 0.43 | 93 | 1006.2 |
| 20260506082657 | 12 | 218 | 8.0 | 24.1 | 0.00 | 0.61 | 0.43 | 94 | 1006.1 |
| 20260506082206 | 11 | 241 | 1.6 | 24.1 | 0.00 | 0.61 | 0.43 | 94 | 1006.2 |
| 20260506081706 | 11 | 250 | 6.4 | 24.1 | 0.00 | 0.61 | 0.43 | 93 | 1006.2 |